SCP
1 1 1 2 2 2 3 4 5 6 6 6 5 5 4 4 3 2 2 2 2 3 3 4 4 5 5 5 5 4 3 3 2 2 1 1 1 1 1 1 1 1 1
1 1 1 1 1 2 2 2 3 3 4 4 5 4 4 3 2 2 2 2 2 2 3 3 3 4 5 5 5 5 4 3 2 1 1 1 0 0 0 0 0 0 0
1 1 1 1 1 1 1 1 1 1 2 2 2 2 2 2 2 2 2 1 1 1 2 2 2 3 4 4 4 4 4 3 2 1 1 0 0 0 0 0 0 0 0
0 1 1 1 1 1 1 1 1 1 1 1 1 1 1 1 1 1 1 1 1 1 1 1 1 2 3 3 3 3 2 2 2 1 1 0 0 0 0 0 0 0 0
0 0 1 1 1 0 0 1 1 1 1 1 1 1 1 1 1 1 1 1 1 1 1 1 1 1 2 3 2 2 2 2 1 1 1 1 0 0 0 0 0 0 0
0 0 0 0 0 0 0 0 1 1 1 1 1 1 1 1 1 1 1 0 0 0 0 1 1 1 1 2 2 2 2 2 1 1 1 1 1 0 0 0 0 0 0
0 0 0 0 0 0 0 0 1 1 1 1 1 1 1 1 1 1 1 0 0 0 0 0 0 1 1 1 1 1 2 2 2 1 2 1 1 1 0 0 0 0 0
0 0 0 0 0 0 0 0 0 0 0 1 1 1 1 1 1 1 1 0 0 0 0 0 0 0 1 1 1 1 1 2 2 2 2 2 2 1 1 1 1 1 1
0 0 0 0 0 0 0 0 0 0 0 0 0 1 1 0 0 0 0 0 0 0 0 0 0 0 0 1 1 1 1 1 2 2 2 2 3 3 2 2 2 2 1
0 0 0 0 0 0 0 0 0 0 0 0 0 0 0 0 0 0 0 0 1 1 0 0 0 0 0 1 1 1 1 1 1 2 2 3 3 4 3 3 3 2 2
0 0 0 0 0 0 0 0 0 0 0 0 0 0 0 0 0 0 0 0 0 1 1 1 0 0 0 0 1 1 1 1 1 1 1 2 3 4 5 4 3 3 3
0 0 0 0 0 0 0 0 0 0 0 0 0 0 0 0 0 0 0 0 0 1 1 1 1 1 1 1 0 0 1 1 1 1 1 2 3 4 5 5 4 3 3
0 0 0 0 0 0 0 0 0 0 0 0 0 0 0 0 0 0 0 0 0 1 1 1 1 1 1 1 0 0 0 0 0 0 0 1 2 3 4 4 4 3 3
0 0 0 0 0 0 0 0 0 0 0 0 0 0 0 0 0 0 0 0 0 1 1 1 1 1 1 1 1 1 0 0 0 0 0 0 1 2 3 3 4 4 4
0 0 0 0 0 0 0 0 0 0 0 0 0 0 0 0 0 0 0 0 0 0 1 1 1 1 1 1 1 1 1 0 0 0 0 0 0 1 2 2 3 3 3
0 0 0 0 0 0 0 0 0 0 0 0 0 0 0 0 0 0 0 0 0 0 1 1 1 1 1 1 1 1 1 1 1 0 0 0 0 0 1 1 1 2 2
0 0 0 0 0 0 0 0 0 0 0 0 0 0 0 0 0 0 0 0 0 0 1 1 1 1 1 1 0 0 1 1 1 1 0 0 0 0 0 0 1 1 1
0 0 0 0 0 0 0 0 0 0 0 0 0 0 0 0 0 0 0 0 0 1 1 1 1 1 1 1 0 0 1 1 1 1 0 0 0 0 0 0 1 1 1
0 0 0 0 0 0 0 0 0 0 0 0 0 0 0 0 0 0 0 0 0 1 1 1 1 1 1 0 0 0 1 1 1 0 0 0 0 0 0 1 1 1 1
0 0 0 0 0 0 0 0 0 0 0 0 0 0 0 0 0 0 0 0 0 0 1 1 1 1 1 0 0 0 1 1 1 0 0 0 0 0 0 0 1 1 1
0 0 0 0 0 0 0 0 0 0 0 0 0 0 0 0 0 0 0 0 0 0 0 0 0 1 1 0 0 0 0 1 1 1 0 0 0 0 0 0 1 1 1
0 0 0 0 0 0 0 0 0 0 0 0 0 0 0 0 0 0 0 0 0 0 0 0 0 0 0 0 0 0 0 0 1 1 1 0 0 0 0 0 0 0 0
0 0 0 0 0 0 0 0 0 0 0 0 0 0 0 0 0 0 0 0 0 0 0 0 0 0 0 0 0 0 0 0 0 1 0 0 0 0 0 0 0 0 0
0 0 0 0 0 0 0 0 0 0 0 0 0 0 0 0 0 0 0 0 0 0 0 0 0 0 0 0 0 0 0 0 0 0 0 0 0 0 0 0 0 0 1
0 0 0 0 0 0 0 0 0 0 0 0 0 0 0 0 0 0 0 0 0 0 0 0 0 0 0 0 0 0 0 0 0 0 0 0 0 0 0 0 0 0 1
0 0 0 0 0 0 0 0 0 0 0 0 0 0 0 0 0 0 0 0 0 0 0 0 0 0 0 0 0 0 0 0 0 0 0 0 0 0 0 0 0 0 1
Wind_Speed
6 6 5 5 4 4 3 2 3 3 3 3 5 5 5 5 4 4 5 6 6 6 5 5 5 5 6 7 8 7 9 8 6 6 7 8 9 9 7 8 8 9 9
6 6 5 5 4 4 3 2 2 3 4 4 4 4 5 5 4 4 4 5 5 5 4 4 4 4 5 7 8 8 7 6 6 6 6 7 7 7 8 6 7 7 6
5 5 5 4 4 4 3 3 3 4 4 6 5 4 4 4 4 4 4 5 5 5 4 5 5 5 5 5 6 7 8 6 6 6 6 6 5 4 6 6 6 5 5
4 4 3 3 3 2 2 2 3 4 5 6 6 7 7 7 7 5 4 5 4 5 4 5 5 5 5 5 6 6 6 7 7 6 7 7 5 4 4 7 7 7 6
1 1 1 2 3 3 4 4 5 6 6 6 7 8 8 7 6 6 5 5 4 3 4 4 4 4 5 5 6 5 7 7 8 7 7 7 6 8 6 4 5 6 6
1 2 3 4 5 6 6 7 7 8 8 8 8 9 10 10 10 9 8 6 4 3 3 3 3 4 4 5 5 6 8 8 9 8 7 7 7 8 7 6 6 5 4
4 5 6 7 8 9 9 10 10 10 10 10 10 10 10 11 12 11 9 8 7 5 4 4 3 3 3 4 5 6 7 9 9 9 8 8 8 6 6 6 5 4 4
6 7 8 9 10 11 11 11 11 12 12 12 11 11 11 11 11 10 11 11 9 8 6 6 5 5 4 5 4 5 6 7 9 11 10 8 8 7 7 7 6 6 6
8 9 10 10 10 11 11 12 12 13 13 14 13 12 12 12 12 12 12 12 10 9 9 9 8 7 7 6 5 5 6 7 8 9 10 9 8 8 8 7 7 7 6
10 11 11 11 11 12 12 13 13 13 14 15 13 12 13 13 13 13 13 13 13 12 12 12 11 10 9 9 8 7 6 6 7 8 10 9 8 7 8 8 7 7 7
12 12 12 12 13 14 14 14 14 15 15 14 14 14 14 14 14 13 14 13 13 13 13 14 13 13 12 11 10 9 8 8 8 8 10 11 11 8 7 8 8 8 7
13 13 13 14 14 15 15 15 15 16 16 15 15 15 15 15 15 15 15 14 14 14 14 14 15 15 14 13 12 12 11 10 10 9 9 9 9 11 9 7 9 8 8
14 14 13 14 15 15 15 16 16 16 16 16 16 16 16 16 15 15 15 15 15 14 14 14 15 16 15 15 14 13 12 12 11 10 10 9 8 10 9 10 9 8 8
14 14 14 14 15 15 15 16 16 16 16 16 16 16 16 16 16 16 15 15 15 15 15 15 15 16 16 16 15 15 14 13 12 11 10 10 10 9 9 9 10 9 9
15 15 15 15 16 16 16 16 16 16 15 16 16 17 16 16 16 16 16 15 15 16 15 15 15 15 15 15 16 15 15 14 13 12 11 11 11 9 7 6 6 8 8
15 16 17 17 17 16 16 16 16 16 15 16 16 16 16 16 16 16 16 16 16 16 15 15 16 16 14 13 14 14 15 14 14 13 12 11 11 11 11 9 8 8 9
16 17 17 17 16 16 16 16 15 16 15 16 16 16 16 16 16 16 16 16 16 16 15 15 15 16 15 12 12 15 15 15 13 13 11 10 10 12 11 11 11 11 10
16 17 16 17 17 16 16 15 15 15 15 16 16 16 16 16 16 16 16 16 14 14 14 14 15 15 14 13 14 14 16 16 14 13 13 12 10 10 10 10 11 11 10
15 15 16 17 16 16 15 15 15 15 15 16 16 16 16 16 16 16 16 15 13 13 13 13 14 14 13 12 14 14 13 14 15 14 13 13 13 9 8 10 11 10 9
14 15 16 16 15 15 15 15 15 15 15 16 16 16 16 16 16 16 15 13 12 12 12 12 12 12 12 11 14 15 11 13 13 12 12 11 10 9 11 11 10 11 10
15 15 15 14 14 14 14 15 15 15 15 16 16 16 15 15 15 14 13 12 11 10 10 11 10 10 10 10 14 16 11 11 12 11 11 10 13 10 11 10 9 8 7
15 15 14 14 14 14 14 15 15 15 15 15 15 16 15 13 12 13 12 11 9 9 8 8 8 7 7 9 12 16 14 11 11 10 9 8 16 13 11 9 7 5 6
15 14 15 15 14 13 13 15 15 15 14 15 15 15 15 13 11 11 11 9 7 5 5 5 5 4 4 7 11 14 14 12 9 7 4 7 14 12 10 10 8 8 8
14 14 15 15 15 15 14 14 14 13 14 14 14 13 13 12 11 8 7 7 6 5 4 4 3 3 3 5 8 9 10 11 10 8 7 10 10 8 6 7 9 9 8
13 13 14 14 16 15 15 14 13 13 13 13 12 12 11 10 9 8 6 7 5 4 4 3 3 2 3 3 5 6 8 9 10 9 8 9 9 10 9 8 8 8 8
14 14 14 15 15 15 15 14 13 12 12 11 11 10 9 9 8 7 5 1 3 2 2 3 4 2 1 4 5 4 3 4 7 8 8 9 9 9 9 8 8 8 8
Wind_Direction
76 75 75 72 72 67 59 32 4 347 321 320 314 314 311 308 303 298 306 302 298 294 284 276 264 252 244 238 234 231 227 231 232 239 240 233 231 237 242 242 248 238 237
90 83 83 85 77 65 47 31 2 356 332 342 318 312 315 312 316 310 310 314 313 313 299 291 282 264 253 240 235 229 237 230 213 233 246 238 216 211 227 223 224 236 228
87 89 84 80 76 63 38 19 360 342 344 333 320 321 306 298 314 319 318 331 332 332 321 298 280 263 255 244 235 225 229 235 221 226 246 251 243 192 185 211 218 219 231
93 86 84 71 59 40 15 354 337 336 334 323 332 331 327 330 333 322 325 323 330 332 329 311 291 268 254 252 244 236 235 238 234 214 235 262 310 277 201 191 195 208 224
85 64 11 348 341 332 332 331 330 325 324 320 313 306 312 319 318 316 309 302 303 306 317 318 309 295 275 262 250 248 240 235 241 233 215 218 222 241 266 225 192 200 213
295 303 306 307 312 317 320 322 323 318 315 309 307 300 302 302 303 300 299 289 290 287 288 291 296 292 290 279 267 251 240 243 245 249 239 221 216 218 224 233 225 221 212
299 307 312 315 317 318 323 324 322 318 315 311 306 302 297 291 282 282 286 283 282 274 260 264 269 281 280 279 274 261 254 243 239 237 239 239 238 236 227 235 229 225 214
305 306 311 313 316 321 326 326 326 321 317 312 308 303 295 287 288 288 290 287 281 278 272 251 242 240 246 257 260 265 261 256 247 241 240 241 238 236 230 233 232 223 213
315 314 318 319 323 324 324 322 320 316 314 312 307 296 294 295 296 293 279 275 273 268 258 249 243 239 233 234 239 248 256 259 255 249 241 239 238 235 233 231 234 239 231
320 321 322 321 322 319 317 317 314 314 313 309 308 306 306 298 292 288 289 285 281 275 267 257 249 241 233 229 230 238 237 246 254 255 251 243 242 237 232 228 228 235 248
324 324 322 321 318 316 316 317 316 314 312 310 309 306 301 299 295 289 284 280 276 273 266 259 252 246 240 232 228 237 236 235 241 255 255 247 240 235 231 228 224 224 228
321 319 320 320 318 318 318 317 316 313 311 310 307 303 301 297 294 291 290 286 279 272 265 259 254 248 242 235 230 232 232 234 237 236 244 254 248 236 232 230 226 223 222
322 319 319 320 318 318 317 316 313 312 311 310 306 303 301 299 297 295 291 286 280 273 268 262 255 250 246 241 234 232 231 231 233 235 236 241 250 245 232 226 228 224 219
320 318 319 318 319 317 315 313 311 311 310 309 306 302 300 298 296 294 290 286 281 275 268 263 256 250 247 241 235 230 229 231 230 229 230 232 234 242 243 230 226 226 220
320 321 320 320 318 316 315 313 312 312 311 308 305 304 303 300 297 293 290 286 281 276 270 263 257 249 244 239 232 230 227 226 228 225 225 226 225 232 240 244 232 228 222
323 322 320 319 318 317 315 314 312 312 311 307 305 305 303 300 297 294 291 287 282 277 273 267 259 251 243 232 223 226 231 225 224 225 222 220 211 218 220 237 246 249 239
322 321 320 318 317 315 316 313 312 312 310 306 303 301 300 298 296 293 291 287 283 278 272 266 259 252 245 234 215 216 231 229 224 223 220 224 211 201 214 212 222 235 252
320 319 318 317 317 319 318 315 312 311 308 304 302 302 302 299 298 295 291 287 282 277 272 266 259 253 243 219 210 208 226 233 225 221 218 223 226 209 212 214 216 219 221
319 317 316 317 318 318 319 317 312 310 307 306 306 307 305 303 301 298 295 292 286 278 271 265 259 251 241 214 203 202 221 225 226 221 218 217 222 193 187 222 224 221 219
320 319 317 316 318 321 320 314 310 309 307 309 309 308 304 301 301 299 297 293 287 280 274 266 256 248 240 213 197 198 218 222 221 218 217 211 224 177 178 222 227 223 218
319 319 318 318 321 320 317 312 309 308 310 309 307 305 303 302 300 299 298 295 289 284 275 268 261 249 238 210 195 197 214 219 220 215 211 204 184 183 186 221 236 233 225
322 323 321 320 320 320 317 312 309 311 310 308 307 306 306 306 304 304 303 301 296 289 283 274 262 243 226 209 193 196 210 228 225 222 215 191 164 177 190 212 226 220 217
323 323 322 318 319 323 320 312 312 313 310 308 308 308 309 309 306 307 309 307 302 291 285 274 261 246 220 189 184 192 203 218 232 225 202 148 156 173 196 214 209 207 216
324 323 322 320 321 322 320 314 313 312 309 308 310 310 310 313 316 314 312 310 310 305 296 286 266 247 219 192 183 188 193 200 213 215 160 147 162 204 223 190 198 214 218
323 322 320 318 319 322 319 319 320 318 313 311 311 311 313 318 318 319 322 323 335 336 310 304 295 268 226 190 176 188 191 196 197 189 190 195 190 200 209 210 207 205 204
323 322 322 321 322 321 319 322 324 321 313 310 312 312 314 317 317 320 326 331 310 331 312 297 311 316 74 130 149 157 153 150 163 186 198 203 203 206 209 209 204 203 202